Time,TemperatureF,DewpointF,PressureIn,WindDirection,WindDirectionDegrees,WindSpeedMPH,WindSpeedGustMPH,Humidity,HourlyPrecipIn,Conditions,Clouds,dailyrainin,SolarRadiationWatts/m^2,SoftwareType,DateUTC
2013-10-23 00:04:00,61.0,54.0,-100.00,NNW,328,3.0,10.0,77,0.00,,,0.02,0.000000,,2013-10-23 05:04:00,
2013-10-23 00:13:00,61.0,54.0,-100.00,NNW,328,3.0,10.0,77,0.00,,,0.02,0.000000,,2013-10-23 05:13:00,
2013-10-23 00:43:00,60.0,54.0,-100.00,NNW,329,3.0,9.0,80,0.00,,,0.02,0.000000,,2013-10-23 05:43:00,
2013-10-23 00:53:00,60.0,54.0,-100.00,NNW,329,3.0,9.0,80,0.00,,,0.02,0.000000,,2013-10-23 05:53:00,
2013-10-23 01:02:00,60.0,54.0,-100.00,NNW,329,3.0,9.0,80,0.00,,,0.02,0.000000,,2013-10-23 06:02:00,
2013-10-23 01:12:00,60.0,54.0,-100.00,NNW,329,3.0,9.0,80,0.00,,,0.02,0.000000,,2013-10-23 06:12:00,
2013-10-23 01:42:00,59.0,54.0,-100.00,NNW,334,4.0,10.0,83,0.00,,,0.02,0.000000,,2013-10-23 06:42:00,
2013-10-23 01:52:00,59.0,54.0,-100.00,NNW,334,4.0,10.0,83,0.00,,,0.02,0.000000,,2013-10-23 06:52:00,
2013-10-23 02:01:00,59.0,54.0,-100.00,NNW,334,4.0,10.0,83,0.00,,,0.02,0.000000,,2013-10-23 07:01:00,
2013-10-23 02:12:00,59.0,54.0,-100.00,NNW,334,4.0,10.0,83,0.00,,,0.02,0.000000,,2013-10-23 07:12:00,
2013-10-23 02:42:00,59.0,54.0,-100.00,NNW,332,5.0,11.0,84,0.00,,,0.02,0.000000,,2013-10-23 07:42:00,
2013-10-23 02:52:00,59.0,54.0,-100.00,NNW,332,5.0,11.0,84,0.00,,,0.02,0.000000,,2013-10-23 07:52:00,
2013-10-23 03:02:00,59.0,54.0,-100.00,NNW,332,5.0,11.0,84,0.00,,,0.02,0.000000,,2013-10-23 08:02:00,
2013-10-23 03:12:00,59.0,54.0,-100.00,NNW,332,5.0,11.0,84,0.00,,,0.02,0.000000,,2013-10-23 08:12:00,
2013-10-23 03:42:00,58.0,54.0,-100.00,NW,326,5.0,13.0,87,0.00,,,0.01,0.000000,,2013-10-23 08:42:00,
2013-10-23 03:53:00,58.0,54.0,-100.00,NW,326,5.0,13.0,87,0.00,,,0.01,0.000000,,2013-10-23 08:53:00,
2013-10-23 04:02:00,58.0,54.0,-100.00,NW,326,5.0,13.0,87,0.00,,,0.01,0.000000,,2013-10-23 09:02:00,
2013-10-23 04:12:00,58.0,54.0,-100.00,NW,326,5.0,13.0,87,0.00,,,0.01,0.000000,,2013-10-23 09:12:00,
2013-10-23 04:53:00,57.0,53.0,-100.00,NW,318,3.0,12.0,86,0.00,,,-99.99,0.000000,,2013-10-23 09:53:00,
2013-10-23 05:03:00,57.0,53.0,-100.00,NW,318,3.0,12.0,86,0.00,,,-99.99,0.000000,,2013-10-23 10:03:00,
2013-10-23 05:12:00,57.0,53.0,-100.00,NW,318,3.0,12.0,86,0.00,,,-99.99,0.000000,,2013-10-23 10:12:00,
2013-10-23 05:43:00,55.0,52.0,-100.00,NW,320,4.0,8.0,89,0.00,,,0.00,0.000000,,2013-10-23 10:43:00,
2013-10-23 05:53:00,55.0,52.0,-100.00,NW,320,4.0,8.0,89,0.00,,,0.00,0.000000,,2013-10-23 10:53:00,
2013-10-23 06:02:00,55.0,52.0,-100.00,NW,320,4.0,8.0,89,0.00,,,0.00,0.000000,,2013-10-23 11:02:00,
2013-10-23 06:12:00,55.0,52.0,-100.00,NW,320,4.0,8.0,89,0.00,,,0.00,0.000000,,2013-10-23 11:12:00,
2013-10-23 06:42:00,53.0,50.0,-100.00,NW,321,3.0,8.0,91,0.00,,,0.00,0.000000,,2013-10-23 11:42:00,
2013-10-23 06:52:00,53.0,50.0,-100.00,NW,321,3.0,8.0,91,0.00,,,0.00,0.000000,,2013-10-23 11:52:00,
2013-10-23 07:01:00,53.0,50.0,-100.00,NW,321,3.0,8.0,91,0.00,,,0.00,0.000000,,2013-10-23 12:01:00,
2013-10-23 07:12:00,53.0,50.0,-100.00,NW,321,3.0,8.0,91,0.00,,,0.00,0.000000,,2013-10-23 12:12:00,
2013-10-23 07:42:00,53.0,50.0,-100.00,NW,317,3.0,8.0,90,0.00,,,0.00,2.000000,,2013-10-23 12:42:00,
2013-10-23 07:52:00,53.0,50.0,-100.00,NW,317,3.0,8.0,90,0.00,,,0.00,2.000000,,2013-10-23 12:52:00,
2013-10-23 08:01:00,53.0,50.0,-100.00,NW,317,3.0,8.0,90,0.00,,,0.00,2.000000,,2013-10-23 13:01:00,
2013-10-23 08:12:00,53.0,50.0,-100.00,NW,317,3.0,8.0,90,0.00,,,0.00,2.000000,,2013-10-23 13:12:00,
2013-10-23 08:43:00,57.0,51.0,-100.00,NW,325,5.0,9.0,80,0.00,,,0.00,34.000000,,2013-10-23 13:43:00,
2013-10-23 08:52:00,57.0,51.0,-100.00,NW,325,5.0,9.0,80,0.00,,,0.00,34.000000,,2013-10-23 13:52:00,
2013-10-23 09:02:00,57.0,51.0,-100.00,NW,325,5.0,9.0,80,0.00,,,0.00,34.000000,,2013-10-23 14:02:00,
2013-10-23 09:11:00,57.0,51.0,-100.00,NW,325,5.0,9.0,80,0.00,,,0.00,34.000000,,2013-10-23 14:11:00,
2013-10-23 09:42:00,60.0,50.0,-100.00,NNW,334,7.0,14.0,70,0.00,,,0.00,55.000000,,2013-10-23 14:42:00,
2013-10-23 09:52:00,60.0,50.0,-100.00,NNW,334,7.0,14.0,70,0.00,,,0.00,55.000000,,2013-10-23 14:52:00,
2013-10-23 10:01:00,60.0,50.0,-100.00,NNW,334,7.0,14.0,70,0.00,,,0.00,55.000000,,2013-10-23 15:01:00,
2013-10-23 10:11:00,60.0,50.0,-100.00,NNW,334,7.0,14.0,70,0.00,,,0.00,55.000000,,2013-10-23 15:11:00,
2013-10-23 10:43:00,65.0,51.0,-100.00,NNW,331,7.0,15.0,61,0.00,,,-99.99,386.000000,,2013-10-23 15:43:00,
2013-10-23 10:53:00,65.0,51.0,-100.00,NNW,331,7.0,15.0,61,0.00,,,-99.99,386.000000,,2013-10-23 15:53:00,
2013-10-23 11:03:00,65.0,51.0,-100.00,NNW,331,7.0,15.0,61,0.00,,,-99.99,386.000000,,2013-10-23 16:03:00,
2013-10-23 11:12:00,65.0,51.0,-100.00,NNW,331,7.0,15.0,61,0.00,,,-99.99,386.000000,,2013-10-23 16:12:00,
2013-10-23 11:43:00,68.0,50.0,-100.00,NNW,331,7.0,16.0,52,0.00,,,0.00,691.000000,,2013-10-23 16:43:00,
2013-10-23 11:53:00,68.0,50.0,-100.00,NNW,331,7.0,16.0,52,0.00,,,0.00,691.000000,,2013-10-23 16:53:00,
2013-10-23 12:03:00,68.0,50.0,-100.00,NNW,331,7.0,16.0,52,0.00,,,0.00,691.000000,,2013-10-23 17:03:00,
2013-10-23 12:12:00,68.0,50.0,-100.00,NNW,331,7.0,16.0,52,0.00,,,0.00,691.000000,,2013-10-23 17:12:00,
2013-10-23 12:44:00,70.0,43.0,-100.00,NW,317,9.0,18.0,38,0.00,,,0.00,784.000000,,2013-10-23 17:44:00,
2013-10-23 12:52:00,70.0,43.0,-100.00,NW,317,9.0,18.0,38,0.00,,,0.00,784.000000,,2013-10-23 17:52:00,
2013-10-23 13:02:00,70.0,43.0,-100.00,NW,317,9.0,18.0,38,0.00,,,0.00,784.000000,,2013-10-23 18:02:00,
2013-10-23 13:12:00,70.0,43.0,-100.00,NW,317,9.0,18.0,38,0.00,,,0.00,784.000000,,2013-10-23 18:12:00,
2013-10-23 14:53:00,73.0,41.0,-100.00,NNW,334,6.0,15.0,32,-99.99,,,0.00,747.000000,,2013-10-23 19:53:00,
2013-10-23 15:02:00,73.0,41.0,-100.00,NNW,334,6.0,15.0,32,-99.99,,,0.00,747.000000,,2013-10-23 20:02:00,
2013-10-23 15:11:00,73.0,41.0,-100.00,NNW,334,6.0,15.0,32,-99.99,,,0.00,747.000000,,2013-10-23 20:11:00,
2013-10-23 15:42:00,73.0,41.0,-100.00,NNW,338,6.0,18.0,31,0.00,,,0.00,569.000000,,2013-10-23 20:42:00,
2013-10-23 15:52:00,73.0,41.0,-100.00,NNW,338,6.0,18.0,31,0.00,,,0.00,569.000000,,2013-10-23 20:52:00,
2013-10-23 16:02:00,73.0,41.0,-100.00,NNW,338,6.0,18.0,31,0.00,,,0.00,569.000000,,2013-10-23 21:02:00,
2013-10-23 16:12:00,73.0,41.0,-100.00,NNW,338,6.0,18.0,31,0.00,,,0.00,569.000000,,2013-10-23 21:12:00,
2013-10-23 16:43:00,70.0,37.0,-100.00,NNW,338,7.0,18.0,30,0.00,,,0.00,95.000000,,2013-10-23 21:43:00,
2013-10-23 16:54:00,70.0,37.0,-100.00,NNW,338,7.0,18.0,30,0.00,,,0.00,95.000000,,2013-10-23 21:54:00,
2013-10-23 17:04:00,70.0,37.0,-100.00,NNW,338,7.0,18.0,30,0.00,,,0.00,95.000000,,2013-10-23 22:04:00,
2013-10-23 17:13:00,70.0,37.0,-100.00,NNW,338,7.0,18.0,30,0.00,,,0.00,95.000000,,2013-10-23 22:13:00,
2013-10-23 17:43:00,67.0,39.0,-100.00,NNW,348,4.0,15.0,36,0.00,,,0.00,60.000000,,2013-10-23 22:43:00,
2013-10-23 17:54:00,67.0,39.0,-100.00,NNW,348,4.0,15.0,36,0.00,,,0.00,60.000000,,2013-10-23 22:54:00,
2013-10-23 18:03:00,67.0,39.0,-100.00,NNW,348,4.0,15.0,36,0.00,,,0.00,60.000000,,2013-10-23 23:03:00,
2013-10-23 18:12:00,67.0,39.0,-100.00,NNW,348,4.0,15.0,36,0.00,,,0.00,60.000000,,2013-10-23 23:12:00,
2013-10-23 18:43:00,60.0,43.0,-100.00,NNW,335,2.0,9.0,53,0.00,,,0.00,12.000000,,2013-10-23 23:43:00,
2013-10-23 18:53:00,60.0,43.0,-100.00,NNW,335,2.0,9.0,53,0.00,,,0.00,12.000000,,2013-10-23 23:53:00,
2013-10-23 19:02:00,60.0,43.0,-100.00,NNW,335,2.0,9.0,53,0.00,,,0.00,12.000000,,2013-10-24 00:02:00,
2013-10-23 19:12:00,60.0,43.0,-100.00,NNW,335,2.0,9.0,53,0.00,,,0.00,12.000000,,2013-10-24 00:12:00,
2013-10-23 19:43:00,57.0,44.0,-100.00,NNW,339,3.0,6.0,61,0.00,,,0.00,0.000000,,2013-10-24 00:43:00,
2013-10-23 19:52:00,57.0,44.0,-100.00,NNW,339,3.0,6.0,61,0.00,,,0.00,0.000000,,2013-10-24 00:52:00,
2013-10-23 20:01:00,57.0,44.0,-100.00,NNW,339,3.0,6.0,61,0.00,,,0.00,0.000000,,2013-10-24 01:01:00,
2013-10-23 20:11:00,57.0,44.0,-100.00,NNW,339,3.0,6.0,61,0.00,,,0.00,0.000000,,2013-10-24 01:11:00,
2013-10-23 20:42:00,54.0,43.0,-100.00,NNW,332,1.0,6.0,66,0.00,,,0.00,0.000000,,2013-10-24 01:42:00,
2013-10-23 20:52:00,54.0,43.0,-100.00,NNW,332,1.0,6.0,66,0.00,,,0.00,0.000000,,2013-10-24 01:52:00,
2013-10-23 21:02:00,54.0,43.0,-100.00,NNW,332,1.0,6.0,66,0.00,,,0.00,0.000000,,2013-10-24 02:02:00,
2013-10-23 21:12:00,54.0,43.0,-100.00,NNW,332,1.0,6.0,66,0.00,,,0.00,0.000000,,2013-10-24 02:12:00,
2013-10-23 21:52:00,53.0,43.0,-100.00,NNW,338,4.0,9.0,69,0.00,,,0.00,0.000000,,2013-10-24 02:52:00,
2013-10-23 22:02:00,53.0,43.0,-100.00,NNW,338,4.0,9.0,69,0.00,,,0.00,0.000000,,2013-10-24 03:02:00,
2013-10-23 22:12:00,53.0,43.0,-100.00,NNW,338,4.0,9.0,69,0.00,,,0.00,0.000000,,2013-10-24 03:12:00,
2013-10-23 22:44:00,53.0,43.0,-100.00,NNW,337,3.0,7.0,70,0.00,,,0.00,0.000000,,2013-10-24 03:44:00,
2013-10-23 22:55:00,53.0,43.0,-100.00,NNW,337,3.0,7.0,70,0.00,,,0.00,0.000000,,2013-10-24 03:55:00,
2013-10-23 23:04:00,53.0,43.0,-100.00,NNW,337,3.0,7.0,70,0.00,,,0.00,0.000000,,2013-10-24 04:04:00,
2013-10-23 23:14:00,53.0,43.0,-100.00,NNW,337,3.0,7.0,70,0.00,,,0.00,0.000000,,2013-10-24 04:14:00,
2013-10-23 23:44:00,50.0,42.0,-100.00,NNW,338,0.0,6.0,74,0.00,,,0.00,0.000000,,2013-10-24 04:44:00,
2013-10-23 23:54:00,50.0,42.0,-100.00,NNW,338,0.0,6.0,74,0.00,,,0.00,0.000000,,2013-10-24 04:54:00,